Weather in Hirosaki

Japan     40°36′14″N   140°28′28″E
temp.,
°C
wind,
m/s
gust,
m/s
humid.,
%
clouds,
%
prec.,
mm/h
press.,
hPa
HPBL,
m
19 april, mon
mon1900:00+6nw61393100 2.0 9931285
03:00+6wnw51492100 3.7 9971482
06:00+6w51485100 1.4 10011375
09:00+9w714645 1.4 10021636
12:00+11wsw813545 0.0 10031744
15:00+11wsw71357100 0.0 10051683
18:00+8wsw512720 0.0 1008910
21:00+7sw49760 0.0 1010392
20 april, tue
tue2000:00+7sw5128656 0.0 1010741
03:00+8sw5128073 0.0 1010782
06:00+9ssw5128282 0.0 1011940
09:00+11ssw71381100 0.1 10111020
12:00+11w41087100 0.4 10111180
15:00+9nw58340 0.5 10141164
18:00+5nw22550 0.0 101860
21:00+2ssw37700 0.0 1020135
21 april, wed
wed2100:00+3sw412650 0.0 1020471
03:00+4sw513700 0.0 1020608
06:00+6wsw514670 0.0 1019991
09:00+11w716430 0.0 10181905
12:00+13w614350 0.0 10182116
15:00+12nw513360 0.0 10181854
18:00+8wnw11570 0.0 101914
21:00+4sw11780 0.0 102016
22 april, thu
thu2200:00+4ssw23826 0.0 102159
03:00+3ssw1185100 0.0 102120
06:00+5w11740 0.0 102132
09:00+12n36460 0.0 1021967
12:00+14n510421 0.0 10201650
15:00+13n58390 0.0 10201553
18:00+8nnw23660 0.0 102257
21:00+5e01780 0.0 102311
23 april, fri
fri2300:00+4s11770 0.0 102411
03:00+3s11730 0.0 102411
06:00+4e01640 0.0 102446
09:00+11n12380 0.0 1022596
12:00+15n34330 0.0 1021902
15:00+15n34330 0.0 1020884
18:00+9n22671 0.0 102131
21:00+6nnw017239 0.0 102112